Left ArrowRight Arrow

46.40834, -105.84056

Hourly Observations for April 4, 2023

Temp ( °F °C ) Dew Point ( °F °C ) Humidity (%) Winds ( mph kmh ) Pressure ( in mb ) Visibility ( mi km ) Precip ( " mm )
12:53 am 00:53 Clear 26 -3.3 21 -6.1 81 81 NNE 10 17 29.92 1013 10 16 0.00 0.00
1:53 am 01:53 Clear 26 -3.3 20 -6.7 77 77 NE 9 15 29.93 1014 10 16 0.00 0.00
2:53 am 02:53 Clear 25 -3.9 20 -6.7 81 81 ENE 10 17 29.93 1014 10 16 0.00 0.00
3:53 am 03:53 Mostly Clear 25 -3.9 21 -6.1 85 85 NE 7 11 29.95 1014 10 16 0.00 0.00
4:53 am 04:53 Mostly Clear 25 -3.9 20 -6.7 81 81 NNE 10 17 29.94 1014 10 16 0.00 0.00
5:53 am 05:53 Clear 25 -3.9 20 -6.7 81 81 NNE 8 13 29.94 1014 10 16 0.00 0.00
6:53 am 06:53 Sunny 24 -4.4 20 -6.7 84 84 NNE 7 11 29.96 1015 10 16 0.00 0.00
7:21 am 07:21 Mostly Cloudy 25 -3.9 21 -6.1 85 85 NE 10 17 30.04 1017 10 16 0.00 0.00
7:53 am 07:53 Cloudy 25 -3.9 20 -6.7 81 81 NNE 14 22 29.97 1015 10 16 0.00 0.00
8:06 am 08:06 Cloudy 25 -3.9 20 -6.7 81 81 NE 13 20 30.03 1017 10 16 0.00 0.00
8:28 am 08:28 Cloudy 25 -3.9 21 -6.1 85 85 NE 12 19 30.04 1017 10 16 0.00 0.00
8:53 am 08:53 Cloudy 26 -3.3 20 -6.7 77 77 NNE 14 22 29.98 1015 10 16 0.00 0.00
9:03 am 09:03 Cloudy 26 -3.3 20 -6.7 77 77 NNE 13 20 30.04 1017 10 16 0.00 0.00
9:53 am 09:53 Cloudy 25 -3.9 19 -7.2 78 78 NNE 14 22 29.99 1016 7 11 0.01 0.13
10:53 am 10:53 Cloudy with Light Snow 26 -3.3 19 -7.2 74 74 NNE 10 17 30.01 1016 3 5 0.01 0.13
11:12 am 11:12 Cloudy with Light Snow 25 -3.9 19 -7.2 78 78 NNE 12 19 30.06 1018 2 3 0.01 0.13
11:20 am 11:20 Cloudy with Light Snow 25 -3.9 20 -6.7 81 81 NNE 13 20 30.06 1018 2 2 0.01 0.13
11:32 am 11:32 Cloudy with Light Snow 26 -3.3 20 -6.7 77 77 NNE 14 22 30.06 1018 3 5 0.01 0.13
11:39 am 11:39 Cloudy with Light Snow 25 -3.9 19 -7.2 78 78 NNE 12 19 30.06 1018 2 3 0.01 0.13
11:53 am 11:53 Cloudy 25 -3.9 18 -7.8 74 74 NNE 15 24 30.01 1016 8 13 0.01 0.13
12:09 pm 12:09 Cloudy with Light Snow 25 -3.9 19 -7.2 78 78 NNE 10 17 30.07 1018 2 3 0.01 0.13
12:25 pm 12:25 Cloudy with Light Snow 25 -3.9 20 -6.7 81 81 NNE 9 15 30.07 1018 2 2 0.01 0.13
12:41 pm 12:41 Cloudy with Light Snow 25 -3.9 20 -6.7 81 81 NE 13 20 30.07 1018 2 3 0.01 0.13
12:53 pm 12:53 Cloudy with Light Snow 25 -3.9 20 -6.7 81 81 NE 10 17 30.02 1017 2 2 0.01 0.13
1:13 pm 13:13 Cloudy with Light Snow 25 -3.9 20 -6.7 81 81 NE 9 15 30.07 1018 2 3 0.01 0.13
1:21 pm 13:21 Cloudy with Light Snow 25 -3.9 20 -6.7 81 81 NNE 9 15 30.06 1018 3 5 0.01 0.13
1:43 pm 13:43 Cloudy with Light Snow 25 -3.9 19 -7.2 78 78 N 9 15 30.06 1018 3 4 0.01 0.13
2:01 pm 14:01 Cloudy with Light Snow 25 -3.9 19 -7.2 78 78 N 9 15 30.07 1018 3 5 0.01 0.13
2:11 pm 14:11 Cloudy 25 -3.9 18 -7.8 74 74 NNE 8 13 30.07 1018 9 14 0.01 0.13
2:21 pm 14:21 Cloudy 25 -3.9 18 -7.8 74 74 N 10 17 30.07 1018 10 16 0.01 0.13
2:53 pm 14:53 Cloudy 25 -3.9 16 -8.9 68 68 NNW 14 22 30.02 1017 10 16 0.01 0.13
3:53 pm 15:53 Cloudy 25 -3.9 15 -9.4 65 65 N 13 20 30.04 1017 10 16 0.00 0.00
4:01 pm 16:01 Cloudy 25 -3.9 15 -9.4 65 65 NNW 15 24 30.09 1019 10 16 0.00 0.00
4:53 pm 16:53 Cloudy 24 -4.4 15 -9.4 68 68 N 14 22 30.06 1018 10 16 0.00 0.00
5:21 pm 17:21 Cloudy 24 -4.4 15 -9.4 68 68 N 13 20 30.13 1020 10 16 0.00 0.00
5:40 pm 17:40 Cloudy 24 -4.4 15 -9.4 68 68 NNW 17 28 30.14 1021 10 16 0.00 0.00
5:53 pm 17:53 Cloudy 24 -4.4 16 -8.9 71 71 NNW 16 26 30.08 1019 10 16 0.00 0.00
6:19 pm 18:19 Cloudy 23 -5 15 -9.4 71 71 N 14 22 30.15 1021 10 16 0.01 0.13
6:53 pm 18:53 Cloudy 23 -5 15 -9.4 71 71 N 13 20 30.09 1019 10 16 0.01 0.13
7:26 pm 19:26 Cloudy 23 -5 15 -9.4 71 71 N 15 24 30.16 1021 10 16 0.00 0.00
7:53 pm 19:53 Cloudy 23 -5 16 -8.9 74 74 N 13 20 30.10 1019 10 16 0.00 0.00
8:53 pm 20:53 Cloudy 22 -5.6 15 -9.4 74 74 N 14 22 30.12 1020 10 16 0.00 0.00
9:53 pm 21:53 Cloudy 22 -5.6 15 -9.4 74 74 N 13 20 30.12 1020 10 16 0.00 0.00
10:53 pm 22:53 Cloudy with Light Snow 21 -6.1 14 -10 74 74 N 14 22 30.11 1020 8 13 0.01 0.13
11:53 pm 23:53 Cloudy 21 -6.1 15 -9.4 77 77 N 13 20 30.12 1020 10 16 0.01 0.13

Powered by Vaisala Xweather